TimeCST,TemperatureF,Dew PointF,Humidity,Sea Level PressureIn,VisibilityMPH,Wind Direction,Wind SpeedMPH,Gust SpeedMPH,PrecipitationIn,Events,Conditions,WindDirDegrees,DateUTC
12:53 AM,27.0,21.0,78,30.40,9.0,North,6.9,-,N/A,,Overcast,360,2014-02-07 06:53:00
1:53 AM,26.1,19.9,78,30.41,9.0,NNE,8.1,-,N/A,,Overcast,20,2014-02-07 07:53:00
2:53 AM,26.1,21.0,81,30.38,9.0,NNE,6.9,-,N/A,,Overcast,20,2014-02-07 08:53:00
3:53 AM,25.0,21.0,85,30.38,9.0,North,8.1,-,N/A,,Overcast,360,2014-02-07 09:53:00
4:53 AM,25.0,19.9,81,30.41,9.0,NNE,6.9,-,N/A,,Overcast,20,2014-02-07 10:53:00
5:53 AM,25.0,19.9,81,30.43,8.0,North,6.9,-,N/A,,Overcast,10,2014-02-07 11:53:00
6:53 AM,25.0,19.9,81,30.43,8.0,North,5.8,-,N/A,,Overcast,360,2014-02-07 12:53:00
7:53 AM,25.0,19.9,81,30.44,7.0,North,10.4,-,N/A,,Overcast,10,2014-02-07 13:53:00
8:53 AM,26.1,19.9,78,30.46,7.0,NNE,5.8,-,N/A,,Overcast,20,2014-02-07 14:53:00
9:53 AM,27.0,19.9,75,30.46,8.0,NNE,5.8,-,N/A,,Overcast,20,2014-02-07 15:53:00
10:08 AM,28.4,21.2,74,30.44,8.0,North,4.6,-,N/A,,Overcast,10,2014-02-07 16:08:00
10:53 AM,30.0,21.0,69,30.44,9.0,NNE,8.1,-,N/A,,Partly Cloudy,20,2014-02-07 16:53:00
11:53 AM,30.9,21.0,67,30.43,9.0,NE,6.9,-,N/A,,Overcast,40,2014-02-07 17:53:00
12:53 PM,32.0,21.0,64,30.39,8.0,NNW,5.8,-,N/A,,Overcast,340,2014-02-07 18:53:00
1:53 PM,32.0,21.0,64,30.37,9.0,ENE,4.6,-,N/A,,Overcast,60,2014-02-07 19:53:00
2:53 PM,33.1,21.9,64,30.35,9.0,North,6.9,-,N/A,,Overcast,10,2014-02-07 20:53:00
3:53 PM,33.1,21.9,64,30.34,9.0,North,5.8,-,N/A,,Overcast,350,2014-02-07 21:53:00
4:53 PM,33.1,21.9,64,30.35,9.0,North,5.8,-,N/A,,Overcast,360,2014-02-07 22:53:00
5:53 PM,32.0,21.0,64,30.33,10.0,North,6.9,-,N/A,,Overcast,10,2014-02-07 23:53:00
6:53 PM,32.0,21.0,64,30.32,10.0,ENE,4.6,-,N/A,,Overcast,60,2014-02-08 00:53:00
7:53 PM,32.0,23.0,69,30.32,10.0,North,3.5,-,N/A,,Overcast,360,2014-02-08 01:53:00
8:53 PM,32.0,23.0,69,30.31,9.0,North,4.6,-,N/A,,Overcast,360,2014-02-08 02:53:00
9:53 PM,32.0,21.9,66,30.34,9.0,NNW,6.9,-,N/A,,Overcast,340,2014-02-08 03:53:00
10:53 PM,30.9,21.9,69,30.32,9.0,North,8.1,-,N/A,,Overcast,360,2014-02-08 04:53:00
11:53 PM,30.9,21.9,69,30.31,10.0,North,5.8,-,N/A,,Overcast,10,2014-02-08 05:53:00